Weather in Murovani Kurylivtsi

Ukraine / Vinnytsia Region     48°43′15″N   27°31′32″E
temp.,
°C
wind,
m/s
gust,
m/s
humid.,
%
clouds,
%
prec.,
mm/h
press.,
hPa
HPBL,
m
15 april, thu
thu1500:00+8wnw3481100 0.2 1013199
03:00+6nw4789100 0.2 1013284
06:00+5nw5890100 0.0 1013384
09:00+6nnw5789100 0.6 1014441
12:00+7nw6782100 0.8 1014622
15:00+8nw777692 0.8 1014780
18:00+6nw7981100 0.0 1014606
21:00+4nw6985100 0.0 1015535
16 april, fri
fri1600:00+3nw61087100 0.0 1015480
03:00+3wnw61088100 0.0 1015531
06:00+2wnw61196100 0.8 1015551
09:00+2wnw51197100 2.8 1016545
12:00+5wnw6873100 0.3 1016958
15:00+7wnw7864100 0.4 10161240
18:00+6nw6866100 0.0 10181235
21:00+5nw3779100 0.0 1019448
17 april, sat
sat1700:00+2wnw22895 0.0 102017
03:00+1nw11945 0.0 102011
06:00+1n119410 0.0 102110
09:00+4e1182100 0.0 1022275
12:00+6se347583 0.0 1021479
15:00+10se4562100 0.1 1020964
18:00+10ese566187 0.0 1020886
21:00+7ese3877100 0.0 1020197
18 april, sun
sun1800:00+6ese4108168 0.0 1021218
03:00+6ese368490 0.0 1021130
06:00+6ese3878100 0.0 1021245
09:00+9ese5965100 0.0 1021669
12:00+10se685864 0.0 10211094
15:00+11ese5753100 0.1 10201860
18:00+10ese4764100 0.0 1019684
21:00+9ese2468100 0.0 101989
19 april, mon
mon1900:00+8se1485100 0.6 1019171
03:00+7ene3892100 2.4 1017401
06:00+7ene51091100 1.3 1015475
09:00+7e51093100 3.2 1014531
12:00+7e4793100 3.4 1013488
15:00+8e4590100 4.1 1011483
18:00+8e2491100 0.1 1009350
21:00+8nne3696100 0.2 1007271